Volver al catálogo

STARLINK-4285

ActivoComunicacionesVLEO
NORAD 52991·PAYLOAD·🇺🇸 United States

Lanzado Jul 7, 2022 desde Cape Canaveral Space Force Station

Loading…

Próximos Pases (próximas 24 horas)

TLE

ActualizadoSource: CelesTrak SupGP

Época: Sep 15, 2026, 01:19 UTC

1 52991C 22076F   26258.05534722  .00051870  00000+0  15327-2 0  2582
2 52991  53.1569 319.5188 0001347  86.9456 206.6416 15.34359800    19

Sigue STARLINK-4285 en tiempo real con AllMySat

Download on the App Store